DAL2397 KEWR-KATL

Flight info

Callsign DAL2397
Flight time 1h 44m
Altitude 26000
Route LANNA J48 MOL FLASK OZZZI2
Aircraft B739/M-SDE2E3FGHIRWXY/LB1

Departure

Time 2026-05-06 16:24
Airport Newark Liberty International Airport (KEWR)

Arrival

Time 2026-05-06 18:09
Airport Hartsfield Jackson Atlanta International Airport (KATL)
Time Latitude Longitude Altitude Speed Heading
2026-05-06 15:22 40.68173 -74.18747 21 ft 0 kts 282°
2026-05-06 16:07 40.68173 -74.18746 22 ft 2 kts 282°
2026-05-06 16:07 40.68167 -74.18714 21 ft 4 kts 284°
2026-05-06 16:07 40.68160 -74.18683 21 ft 4 kts 293°
2026-05-06 16:08 40.68147 -74.18655 21 ft 4 kts 334°
2026-05-06 16:08 40.68136 -74.18651 21 ft 6 kts 13°
2026-05-06 16:08 40.68161 -74.18644 21 ft 4 kts 12°
2026-05-06 16:08 40.68168 -74.18642 23 ft 1 kts 12°
2026-05-06 16:14 40.68171 -74.18641 22 ft 2 kts 12°
2026-05-06 16:14 40.68196 -74.18631 22 ft 6 kts 21°
2026-05-06 16:14 40.68244 -74.18582 22 ft 11 kts 57°
2026-05-06 16:14 40.68248 -74.18463 21 ft 15 kts 100°
2026-05-06 16:15 40.68237 -74.18330 21 ft 14 kts 94°
2026-05-06 16:15 40.68231 -74.18203 21 ft 14 kts 88°
2026-05-06 16:15 40.68237 -74.18083 21 ft 13 kts 92°
2026-05-06 16:15 40.68225 -74.17967 21 ft 13 kts 108°
2026-05-06 16:16 40.68187 -74.17867 23 ft 12 kts 118°
2026-05-06 16:16 40.68149 -74.17767 22 ft 12 kts 111°
2026-05-06 16:16 40.68190 -74.17690 21 ft 12 kts 24°
2026-05-06 16:16 40.68264 -74.17645 22 ft 12 kts 25°
2026-05-06 16:17 40.68342 -74.17595 22 ft 14 kts 26°
2026-05-06 16:17 40.68440 -74.17532 23 ft 17 kts 26°
2026-05-06 16:17 40.68551 -74.17462 25 ft 18 kts 25°
2026-05-06 16:17 40.68657 -74.17395 22 ft 17 kts 25°
2026-05-06 16:18 40.68761 -74.17329 23 ft 16 kts 26°
2026-05-06 16:18 40.68860 -74.17265 23 ft 16 kts 26°
2026-05-06 16:18 40.68957 -74.17204 22 ft 16 kts 25°
2026-05-06 16:18 40.69067 -74.17134 20 ft 20 kts 26°
2026-05-06 16:19 40.69183 -74.17060 21 ft 19 kts 26°
2026-05-06 16:19 40.69301 -74.16986 23 ft 19 kts 25°
2026-05-06 16:19 40.69414 -74.16915 22 ft 18 kts 26°
2026-05-06 16:19 40.69518 -74.16848 21 ft 17 kts 26°
2026-05-06 16:20 40.69625 -74.16780 22 ft 17 kts 26°
2026-05-06 16:20 40.69727 -74.16714 21 ft 16 kts 26°
2026-05-06 16:20 40.69826 -74.16651 21 ft 15 kts 26°
2026-05-06 16:20 40.69921 -74.16591 20 ft 15 kts 25°
2026-05-06 16:21 40.70011 -74.16534 20 ft 13 kts 25°
2026-05-06 16:21 40.70060 -74.16502 22 ft 4 kts 38°
2026-05-06 16:21 40.70066 -74.16484 20 ft 0 kts 79°
2026-05-06 16:22 40.70067 -74.16478 20 ft 3 kts 81°
2026-05-06 16:22 40.70067 -74.16475 20 ft 0 kts 82°
2026-05-06 16:22 40.70067 -74.16474 20 ft 0 kts 82°
2026-05-06 16:23 40.70067 -74.16473 20 ft 1 kts 82°
2026-05-06 16:23 40.70066 -74.16444 20 ft 6 kts 98°
2026-05-06 16:23 40.70036 -74.16374 19 ft 12 kts 155°
2026-05-06 16:23 40.69939 -74.16416 18 ft 27 kts 206°
2026-05-06 16:24 40.69573 -74.16655 23 ft 91 kts 206°
2026-05-06 16:24 40.68830 -74.17125 23 ft 143 kts 206°
2026-05-06 16:24 40.67868 -74.17755 54 ft 180 kts 208°
2026-05-06 16:24 40.66752 -74.18469 702 ft 173 kts 207°
2026-05-06 16:25 40.65577 -74.18949 1306 ft 181 kts 197°
2026-05-06 16:25 40.64457 -74.19590 1980 ft 176 kts 213°
2026-05-06 16:25 40.63357 -74.20444 2289 ft 190 kts 211°
2026-05-06 16:25 40.62183 -74.21325 2643 ft 200 kts 211°
2026-05-06 16:26 40.60905 -74.22288 2780 ft 225 kts 216°
2026-05-06 16:26 40.59910 -74.23852 3483 ft 228 kts 244°
2026-05-06 16:26 40.59667 -74.25950 4215 ft 240 kts 264°
2026-05-06 16:26 40.59746 -74.28179 4868 ft 246 kts 267°
2026-05-06 16:27 40.59854 -74.30446 5549 ft 251 kts 267°
2026-05-06 16:27 40.59964 -74.32759 6232 ft 253 kts 268°
2026-05-06 16:27 40.60048 -74.35072 6952 ft 253 kts 262°
2026-05-06 16:27 40.59850 -74.37359 7633 ft 252 kts 258°
2026-05-06 16:28 40.59607 -74.39663 8269 ft 257 kts 257°
2026-05-06 16:28 40.59365 -74.41973 8902 ft 260 kts 257°
2026-05-06 16:28 40.59139 -74.44173 9529 ft 262 kts 257°
2026-05-06 16:28 40.58914 -74.46562 10171 ft 265 kts 260°
2026-05-06 16:29 40.58771 -74.49064 10446 ft 285 kts 261°
2026-05-06 16:29 40.58649 -74.51748 10608 ft 304 kts 262°
2026-05-06 16:29 40.58525 -74.54616 10762 ft 323 kts 262°
2026-05-06 16:29 40.58382 -74.57648 10888 ft 340 kts 262°
2026-05-06 16:30 40.58227 -74.60820 11017 ft 356 kts 262°
2026-05-06 16:30 40.58118 -74.62997 11140 ft 363 kts 262°
2026-05-06 16:30 40.57917 -74.67025 11607 ft 369 kts 262°
2026-05-06 16:30 40.57743 -74.70404 12151 ft 370 kts 262°
2026-05-06 16:31 40.57570 -74.73772 12683 ft 370 kts 261°
2026-05-06 16:31 40.57385 -74.77159 13239 ft 372 kts 261°
2026-05-06 16:31 40.57206 -74.80553 13782 ft 373 kts 262°
2026-05-06 16:31 40.57023 -74.83980 14278 ft 377 kts 262°
2026-05-06 16:32 40.56842 -74.87421 14806 ft 378 kts 262°
2026-05-06 16:32 40.56660 -74.90831 15280 ft 379 kts 262°
2026-05-06 16:32 40.56469 -74.94309 15695 ft 383 kts 262°
2026-05-06 16:32 40.56255 -74.97811 16180 ft 383 kts 260°
2026-05-06 16:33 40.55641 -75.01205 16682 ft 381 kts 249°
2026-05-06 16:33 40.54603 -75.04406 17172 ft 381 kts 242°
2026-05-06 16:33 40.53202 -75.07370 17557 ft 385 kts 233°
2026-05-06 16:34 40.49747 -75.12818 18306 ft 390 kts 231°
2026-05-06 16:34 40.47991 -75.15545 18684 ft 393 kts 231°
2026-05-06 16:34 40.46248 -75.18264 19031 ft 395 kts 232°
2026-05-06 16:34 40.44481 -75.21033 19364 ft 398 kts 232°
2026-05-06 16:35 40.42702 -75.23828 19694 ft 400 kts 232°
2026-05-06 16:35 40.40912 -75.26646 20015 ft 403 kts 232°
2026-05-06 16:35 40.39158 -75.29407 20346 ft 405 kts 232°
2026-05-06 16:35 40.37326 -75.32290 20645 ft 407 kts 232°
2026-05-06 16:36 40.35503 -75.35158 20930 ft 410 kts 232°
2026-05-06 16:36 40.33671 -75.38035 21212 ft 412 kts 232°
2026-05-06 16:36 40.31853 -75.40890 21522 ft 413 kts 232°
2026-05-06 16:36 40.30009 -75.43781 21824 ft 415 kts 232°
2026-05-06 16:37 40.28154 -75.46688 22084 ft 417 kts 232°
2026-05-06 16:37 40.26289 -75.49608 22344 ft 418 kts 232°
2026-05-06 16:37 40.24416 -75.52538 22579 ft 421 kts 232°
2026-05-06 16:37 40.22542 -75.55472 22820 ft 422 kts 233°
2026-05-06 16:38 40.20799 -75.58565 23055 ft 423 kts 238°
2026-05-06 16:38 40.19200 -75.61792 23266 ft 424 kts 239°
2026-05-06 16:38 40.17627 -75.65017 23492 ft 425 kts 239°
2026-05-06 16:38 40.16030 -75.68271 23714 ft 427 kts 238°
2026-05-06 16:39 40.14409 -75.71537 23898 ft 429 kts 238°
2026-05-06 16:39 40.12772 -75.74806 24114 ft 430 kts 238°
2026-05-06 16:39 40.11122 -75.78085 24330 ft 431 kts 238°
2026-05-06 16:39 40.09476 -75.81351 24560 ft 432 kts 238°
2026-05-06 16:40 40.07834 -75.84596 24786 ft 433 kts 238°
2026-05-06 16:40 40.06170 -75.87867 24996 ft 433 kts 238°
2026-05-06 16:40 40.04502 -75.91139 25197 ft 434 kts 238°
2026-05-06 16:40 40.02825 -75.94426 25402 ft 435 kts 238°
2026-05-06 16:41 40.01148 -75.97714 25610 ft 435 kts 238°
2026-05-06 16:41 39.99471 -76.01002 25793 ft 435 kts 238°
2026-05-06 16:41 39.97791 -76.04291 25857 ft 435 kts 238°
2026-05-06 16:41 39.96115 -76.07567 25866 ft 435 kts 238°
2026-05-06 16:42 39.94466 -76.10820 25874 ft 435 kts 239°
2026-05-06 16:42 39.92786 -76.14157 25874 ft 435 kts 239°
2026-05-06 16:42 39.91133 -76.17436 25868 ft 432 kts 239°
2026-05-06 16:42 39.89500 -76.20659 25861 ft 430 kts 238°
2026-05-06 16:43 39.87850 -76.23886 25863 ft 429 kts 238°
2026-05-06 16:43 39.86188 -76.27123 25876 ft 429 kts 238°
2026-05-06 16:43 39.84534 -76.30340 25875 ft 429 kts 238°
2026-05-06 16:43 39.82867 -76.33581 25878 ft 430 kts 238°
2026-05-06 16:44 39.81205 -76.36812 25872 ft 430 kts 238°
2026-05-06 16:44 39.79565 -76.39998 25874 ft 430 kts 238°
2026-05-06 16:44 39.77874 -76.43281 25879 ft 430 kts 238°
2026-05-06 16:44 39.76215 -76.46501 25878 ft 430 kts 238°
2026-05-06 16:45 39.74568 -76.49692 25882 ft 430 kts 238°
2026-05-06 16:45 39.72907 -76.52907 25881 ft 430 kts 238°
2026-05-06 16:45 39.71232 -76.56149 25877 ft 431 kts 238°
2026-05-06 16:45 39.69559 -76.59382 25880 ft 430 kts 238°
2026-05-06 16:46 39.67898 -76.62589 25880 ft 431 kts 238°
2026-05-06 16:46 39.66223 -76.65819 25879 ft 431 kts 238°
2026-05-06 16:46 39.64549 -76.69045 25873 ft 431 kts 238°
2026-05-06 16:46 39.62866 -76.72284 25880 ft 433 kts 238°
2026-05-06 16:47 39.61213 -76.75463 26036 ft 434 kts 238°
2026-05-06 16:47 39.59527 -76.78699 26356 ft 432 kts 238°
2026-05-06 16:47 39.57702 -76.81823 26585 ft 434 kts 233°
2026-05-06 16:47 39.55688 -76.84743 26796 ft 435 kts 231°
2026-05-06 16:48 39.53640 -76.87628 26993 ft 436 kts 231°
2026-05-06 16:48 39.51581 -76.90506 27226 ft 435 kts 231°
2026-05-06 16:48 39.49530 -76.93370 27524 ft 432 kts 231°
2026-05-06 16:48 39.47520 -76.96183 27803 ft 430 kts 232°
2026-05-06 16:49 39.45497 -76.99020 27858 ft 428 kts 232°
2026-05-06 16:49 39.43486 -77.01843 27880 ft 425 kts 232°
2026-05-06 16:49 39.41491 -77.04648 27871 ft 423 kts 232°
2026-05-06 16:49 39.39502 -77.07445 27882 ft 422 kts 232°
2026-05-06 16:50 39.37509 -77.10247 27886 ft 421 kts 232°
2026-05-06 16:50 39.35531 -77.13025 27889 ft 420 kts 232°
2026-05-06 16:50 39.33557 -77.15797 27898 ft 419 kts 232°
2026-05-06 16:50 39.31602 -77.18537 27890 ft 419 kts 232°
2026-05-06 16:51 39.29629 -77.21299 27899 ft 419 kts 232°
2026-05-06 16:51 39.27678 -77.24028 27900 ft 419 kts 232°
2026-05-06 16:51 39.25690 -77.26807 27901 ft 420 kts 232°
2026-05-06 16:51 39.23707 -77.29578 27898 ft 421 kts 232°
2026-05-06 16:52 39.21719 -77.32353 27903 ft 422 kts 232°
2026-05-06 16:52 39.19726 -77.35133 27898 ft 423 kts 232°
2026-05-06 16:52 39.17726 -77.37917 27900 ft 423 kts 232°
2026-05-06 16:52 39.15725 -77.40702 27900 ft 424 kts 232°
2026-05-06 16:53 39.13747 -77.43451 27899 ft 424 kts 232°
2026-05-06 16:53 39.11750 -77.46225 27897 ft 425 kts 232°
2026-05-06 16:53 39.09733 -77.49024 27889 ft 425 kts 232°
2026-05-06 16:53 39.07721 -77.51813 27887 ft 425 kts 232°
2026-05-06 16:54 39.05708 -77.54601 27889 ft 426 kts 232°
2026-05-06 16:54 39.03692 -77.57391 27890 ft 426 kts 232°
2026-05-06 16:54 39.01668 -77.60189 27888 ft 426 kts 232°
2026-05-06 16:54 38.99676 -77.62940 27888 ft 426 kts 232°
2026-05-06 16:55 38.97662 -77.65719 27888 ft 425 kts 232°
2026-05-06 16:55 38.95643 -77.68504 27888 ft 426 kts 232°
2026-05-06 16:55 38.93631 -77.71275 27894 ft 425 kts 232°
2026-05-06 16:55 38.91604 -77.74065 27887 ft 426 kts 232°
2026-05-06 16:56 38.89586 -77.76841 27888 ft 426 kts 232°
2026-05-06 16:56 38.87568 -77.79615 27887 ft 426 kts 232°
2026-05-06 16:56 38.85541 -77.82397 27894 ft 426 kts 232°
2026-05-06 16:56 38.83514 -77.85177 27900 ft 426 kts 232°
2026-05-06 16:57 38.81522 -77.87908 27895 ft 426 kts 232°
2026-05-06 16:57 38.79490 -77.90690 27890 ft 427 kts 232°
2026-05-06 16:57 38.77691 -77.93151 27892 ft 427 kts 232°
2026-05-06 16:57 38.75609 -77.95997 27885 ft 427 kts 232°
2026-05-06 16:58 38.73576 -77.98773 27890 ft 427 kts 232°
2026-05-06 16:58 38.71542 -78.01547 27890 ft 427 kts 232°
2026-05-06 16:58 38.69507 -78.04322 27889 ft 427 kts 232°
2026-05-06 16:58 38.67479 -78.07083 27894 ft 426 kts 232°
2026-05-06 16:59 38.65442 -78.09855 27881 ft 426 kts 232°
2026-05-06 16:59 38.63437 -78.12579 27889 ft 425 kts 232°
2026-05-06 16:59 38.61416 -78.15324 27892 ft 425 kts 232°
2026-05-06 16:59 38.59390 -78.18074 27898 ft 425 kts 232°
2026-05-06 17:00 38.57367 -78.20817 27896 ft 425 kts 232°
2026-05-06 17:00 38.55331 -78.23577 27899 ft 425 kts 232°
2026-05-06 17:00 38.53304 -78.26321 27894 ft 426 kts 232°
2026-05-06 17:00 38.51565 -78.28675 27889 ft 426 kts 232°
2026-05-06 17:01 38.49590 -78.31343 27887 ft 427 kts 232°
2026-05-06 17:01 38.49350 -78.31667 27887 ft 427 kts 232°
2026-05-06 17:01 38.47311 -78.34422 27887 ft 427 kts 232°
2026-05-06 17:02 38.45263 -78.37183 27883 ft 427 kts 232°
2026-05-06 17:02 38.43232 -78.39922 27886 ft 427 kts 232°
2026-05-06 17:02 38.41183 -78.42680 27895 ft 427 kts 232°
2026-05-06 17:02 38.39131 -78.45438 27885 ft 428 kts 232°
2026-05-06 17:03 38.37082 -78.48192 27892 ft 428 kts 232°
2026-05-06 17:03 38.35037 -78.50938 27892 ft 428 kts 232°
2026-05-06 17:03 38.33015 -78.53652 27891 ft 428 kts 232°
2026-05-06 17:03 38.30964 -78.56402 27902 ft 427 kts 232°
2026-05-06 17:04 38.28921 -78.59139 27896 ft 428 kts 232°
2026-05-06 17:04 38.26876 -78.61875 27906 ft 427 kts 232°
2026-05-06 17:04 38.24820 -78.64624 27901 ft 426 kts 232°
2026-05-06 17:04 38.22812 -78.67306 27897 ft 426 kts 232°
2026-05-06 17:05 38.20763 -78.70042 27898 ft 426 kts 232°
2026-05-06 17:05 38.18693 -78.72802 27933 ft 425 kts 232°
2026-05-06 17:05 38.16685 -78.75478 27927 ft 425 kts 232°
2026-05-06 17:05 38.14642 -78.78201 27919 ft 426 kts 232°
2026-05-06 17:06 38.12594 -78.80925 27909 ft 426 kts 232°
2026-05-06 17:06 38.10548 -78.83645 27916 ft 426 kts 232°
2026-05-06 17:06 38.08501 -78.86363 27913 ft 426 kts 232°
2026-05-06 17:06 38.06449 -78.89085 27928 ft 426 kts 232°
2026-05-06 17:07 38.04434 -78.91756 27929 ft 425 kts 232°
2026-05-06 17:07 38.02358 -78.94506 27929 ft 425 kts 232°
2026-05-06 17:07 38.00345 -78.97171 27930 ft 425 kts 232°
2026-05-06 17:07 37.98303 -78.99871 27922 ft 425 kts 232°
2026-05-06 17:08 37.96255 -79.02577 27918 ft 426 kts 232°
2026-05-06 17:08 37.94208 -79.05281 27930 ft 427 kts 232°
2026-05-06 17:08 37.92148 -79.08000 27934 ft 428 kts 232°
2026-05-06 17:08 37.90075 -79.10732 27931 ft 429 kts 232°
2026-05-06 17:09 37.88033 -79.13491 27933 ft 430 kts 233°
2026-05-06 17:09 37.86017 -79.16289 27933 ft 431 kts 233°
2026-05-06 17:09 37.84011 -79.19101 27943 ft 431 kts 233°
2026-05-06 17:09 37.82035 -79.21875 27939 ft 431 kts 233°
2026-05-06 17:10 37.80023 -79.24692 27946 ft 431 kts 233°
2026-05-06 17:10 37.78007 -79.27503 27952 ft 431 kts 233°
2026-05-06 17:10 37.75992 -79.30306 27960 ft 431 kts 233°
2026-05-06 17:10 37.74096 -79.33187 27948 ft 424 kts 242°
2026-05-06 17:11 37.72875 -79.36540 27970 ft 415 kts 255°
2026-05-06 17:11 37.72160 -79.39955 27955 ft 401 kts 259°
2026-05-06 17:11 37.71574 -79.43382 27945 ft 389 kts 260°
2026-05-06 17:11 37.71050 -79.46652 27960 ft 385 kts 261°
2026-05-06 17:12 37.70529 -79.49969 27963 ft 385 kts 261°
2026-05-06 17:12 37.70010 -79.53308 27974 ft 386 kts 261°
2026-05-06 17:12 37.69418 -79.56613 27967 ft 387 kts 255°
2026-05-06 17:12 37.68251 -79.59671 27979 ft 395 kts 238°
2026-05-06 17:13 37.66377 -79.62214 27982 ft 405 kts 229°
2026-05-06 17:13 37.64194 -79.64533 27981 ft 408 kts 226°
2026-05-06 17:13 37.61985 -79.66743 27967 ft 408 kts 225°
2026-05-06 17:13 37.59763 -79.68927 27965 ft 404 kts 225°
2026-05-06 17:14 37.57548 -79.71085 27975 ft 402 kts 225°
2026-05-06 17:14 37.55331 -79.73237 27972 ft 403 kts 225°
2026-05-06 17:14 37.53122 -79.75378 27973 ft 403 kts 225°
2026-05-06 17:14 37.50895 -79.77535 27979 ft 403 kts 225°
2026-05-06 17:15 37.48673 -79.79686 27982 ft 403 kts 225°
2026-05-06 17:15 37.46468 -79.81823 27980 ft 403 kts 225°
2026-05-06 17:15 37.44227 -79.83996 27982 ft 404 kts 225°
2026-05-06 17:15 37.42027 -79.86134 27984 ft 404 kts 225°
2026-05-06 17:16 37.39724 -79.88168 27979 ft 413 kts 216°
2026-05-06 17:16 37.36965 -79.89415 27995 ft 433 kts 199°
2026-05-06 17:16 37.33924 -79.89794 28001 ft 442 kts 193°
2026-05-06 17:16 37.30950 -79.90434 27982 ft 424 kts 208°
2026-05-06 17:17 37.28372 -79.92032 27996 ft 410 kts 220°
2026-05-06 17:17 37.26090 -79.94129 27991 ft 403 kts 228°
2026-05-06 17:17 37.24131 -79.96539 27986 ft 397 kts 236°
2026-05-06 17:17 37.22422 -79.99249 27993 ft 395 kts 237°
2026-05-06 17:18 37.20726 -80.01959 27988 ft 396 kts 237°
2026-05-06 17:18 37.17310 -80.07361 27999 ft 397 kts 237°
2026-05-06 17:18 37.15578 -80.10081 27995 ft 397 kts 237°
2026-05-06 17:19 37.13857 -80.12775 27992 ft 397 kts 237°
2026-05-06 17:19 37.12137 -80.15464 27999 ft 396 kts 237°
2026-05-06 17:19 37.10435 -80.18122 28016 ft 395 kts 237°
2026-05-06 17:20 37.07000 -80.23485 28018 ft 395 kts 237°
2026-05-06 17:20 37.03565 -80.28839 28023 ft 394 kts 237°
2026-05-06 17:21 37.00051 -80.34062 28018 ft 398 kts 232°
2026-05-06 17:21 36.96112 -80.39079 28028 ft 410 kts 231°
2026-05-06 17:22 36.92039 -80.44167 28035 ft 418 kts 231°
2026-05-06 17:22 36.87921 -80.49368 28016 ft 421 kts 231°
2026-05-06 17:23 36.83809 -80.54594 28018 ft 422 kts 231°
2026-05-06 17:23 36.81760 -80.57202 27937 ft 420 kts 231°
2026-05-06 17:23 36.79743 -80.59769 27725 ft 420 kts 231°
2026-05-06 17:23 36.77690 -80.62381 27466 ft 421 kts 231°
2026-05-06 17:24 36.75648 -80.64979 27237 ft 422 kts 231°
2026-05-06 17:24 36.73587 -80.67596 26986 ft 423 kts 231°
2026-05-06 17:24 36.71519 -80.70222 26732 ft 424 kts 231°
2026-05-06 17:24 36.69460 -80.72833 26490 ft 425 kts 231°
2026-05-06 17:25 36.67384 -80.75462 26240 ft 425 kts 231°
2026-05-06 17:25 36.65309 -80.78088 26090 ft 425 kts 231°
2026-05-06 17:25 36.63229 -80.80717 26048 ft 427 kts 231°
2026-05-06 17:25 36.61149 -80.83345 26040 ft 426 kts 231°
2026-05-06 17:26 36.59095 -80.85939 26039 ft 426 kts 231°
2026-05-06 17:26 36.57019 -80.88557 26038 ft 426 kts 231°
2026-05-06 17:26 36.54937 -80.91182 26045 ft 426 kts 231°
2026-05-06 17:26 36.52848 -80.93813 26041 ft 427 kts 231°
2026-05-06 17:27 36.50756 -80.96445 26044 ft 427 kts 231°
2026-05-06 17:27 36.48695 -80.99037 26059 ft 427 kts 231°
2026-05-06 17:27 36.46581 -81.01694 26054 ft 428 kts 231°
2026-05-06 17:27 36.44492 -81.04318 26045 ft 428 kts 230°
2026-05-06 17:28 36.42425 -81.06911 26048 ft 428 kts 230°
2026-05-06 17:28 36.40320 -81.09550 26057 ft 429 kts 230°
2026-05-06 17:28 36.38219 -81.12182 26068 ft 429 kts 230°
2026-05-06 17:28 36.36132 -81.14794 26052 ft 429 kts 230°
2026-05-06 17:29 36.34021 -81.17434 26048 ft 429 kts 230°
2026-05-06 17:29 36.31918 -81.20061 26071 ft 429 kts 230°
2026-05-06 17:29 36.29819 -81.22684 26051 ft 429 kts 230°
2026-05-06 17:29 36.27719 -81.25305 26071 ft 429 kts 230°
2026-05-06 17:30 36.25635 -81.27907 26053 ft 430 kts 230°
2026-05-06 17:30 36.23529 -81.30532 26050 ft 430 kts 230°
2026-05-06 17:30 36.21434 -81.33144 26067 ft 429 kts 230°
2026-05-06 17:30 36.19325 -81.35771 26047 ft 430 kts 230°
2026-05-06 17:31 36.17206 -81.38408 26071 ft 429 kts 230°
2026-05-06 17:31 36.15107 -81.41017 26048 ft 429 kts 230°
2026-05-06 17:31 36.13005 -81.43630 26057 ft 429 kts 230°
2026-05-06 17:31 36.10929 -81.46206 26049 ft 429 kts 230°
2026-05-06 17:32 36.08817 -81.48827 26051 ft 429 kts 230°
2026-05-06 17:32 36.06705 -81.51444 26047 ft 429 kts 230°
2026-05-06 17:32 36.04612 -81.54038 26044 ft 429 kts 230°
2026-05-06 17:32 36.02486 -81.56669 26046 ft 429 kts 230°
2026-05-06 17:33 36.00378 -81.59276 26035 ft 430 kts 230°
2026-05-06 17:33 35.98264 -81.61888 26051 ft 429 kts 230°
2026-05-06 17:33 35.96180 -81.64461 26050 ft 430 kts 230°
2026-05-06 17:33 35.94062 -81.67074 26055 ft 431 kts 230°
2026-05-06 17:34 35.91943 -81.69688 26049 ft 432 kts 230°
2026-05-06 17:34 35.89824 -81.72297 26049 ft 432 kts 229°
2026-05-06 17:34 35.87682 -81.74934 26048 ft 433 kts 229°
2026-05-06 17:34 35.85551 -81.77555 26051 ft 434 kts 229°
2026-05-06 17:35 35.83419 -81.80176 26043 ft 434 kts 229°
2026-05-06 17:35 35.81281 -81.82802 26045 ft 434 kts 229°
2026-05-06 17:35 35.79166 -81.85395 26038 ft 434 kts 229°
2026-05-06 17:36 35.74854 -81.90590 26048 ft 434 kts 229°
2026-05-06 17:36 35.72694 -81.93166 26038 ft 434 kts 229°
2026-05-06 17:36 35.70516 -81.95762 26043 ft 434 kts 229°
2026-05-06 17:36 35.68353 -81.98341 26043 ft 433 kts 229°
2026-05-06 17:37 35.66187 -82.00926 26049 ft 433 kts 229°
2026-05-06 17:37 35.64045 -82.03481 26053 ft 433 kts 229°
2026-05-06 17:37 35.61894 -82.06046 26039 ft 433 kts 229°
2026-05-06 17:37 35.59738 -82.08616 26049 ft 433 kts 229°
2026-05-06 17:38 35.57579 -82.11189 26047 ft 433 kts 229°
2026-05-06 17:38 35.55427 -82.13750 26051 ft 432 kts 229°
2026-05-06 17:38 35.53268 -82.16319 26042 ft 432 kts 229°
2026-05-06 17:38 35.51105 -82.18890 26031 ft 432 kts 229°
2026-05-06 17:39 35.48942 -82.21459 26046 ft 431 kts 229°
2026-05-06 17:39 35.46780 -82.24025 26048 ft 431 kts 229°
2026-05-06 17:39 35.44657 -82.26543 26044 ft 432 kts 229°
2026-05-06 17:39 35.42497 -82.29102 26052 ft 432 kts 229°
2026-05-06 17:40 35.40360 -82.31694 26054 ft 432 kts 230°
2026-05-06 17:40 35.38255 -82.34312 26046 ft 433 kts 230°
2026-05-06 17:40 35.36140 -82.36963 26056 ft 433 kts 230°
2026-05-06 17:40 35.34046 -82.39585 26046 ft 434 kts 230°
2026-05-06 17:41 35.31910 -82.42250 26050 ft 435 kts 230°
2026-05-06 17:41 35.29808 -82.44863 26041 ft 436 kts 230°
2026-05-06 17:41 35.27659 -82.47528 26051 ft 436 kts 230°
2026-05-06 17:41 35.25566 -82.50121 26044 ft 436 kts 230°
2026-05-06 17:42 35.23433 -82.52758 26042 ft 437 kts 230°
2026-05-06 17:42 35.21294 -82.55403 26040 ft 436 kts 230°
2026-05-06 17:42 35.19159 -82.58040 26048 ft 437 kts 230°
2026-05-06 17:42 35.17009 -82.60693 26048 ft 437 kts 230°
2026-05-06 17:43 35.14872 -82.63312 26055 ft 438 kts 229°
2026-05-06 17:43 35.12708 -82.65898 26068 ft 438 kts 229°
2026-05-06 17:43 35.10491 -82.68518 26046 ft 439 kts 229°
2026-05-06 17:43 35.08299 -82.71103 26060 ft 439 kts 229°
2026-05-06 17:44 35.06131 -82.73662 26049 ft 439 kts 229°
2026-05-06 17:44 35.03947 -82.76246 26065 ft 440 kts 229°
2026-05-06 17:44 35.01751 -82.78847 26055 ft 440 kts 229°
2026-05-06 17:44 34.99541 -82.81466 26048 ft 440 kts 229°
2026-05-06 17:45 34.97369 -82.84037 26067 ft 441 kts 229°
2026-05-06 17:45 34.95154 -82.86655 26045 ft 441 kts 229°
2026-05-06 17:45 34.92969 -82.89231 26054 ft 441 kts 229°
2026-05-06 17:45 34.90749 -82.91816 26052 ft 441 kts 229°
2026-05-06 17:46 34.88533 -82.94382 26045 ft 442 kts 229°
2026-05-06 17:46 34.86292 -82.96971 26057 ft 441 kts 229°
2026-05-06 17:46 34.84076 -82.99529 26069 ft 441 kts 229°
2026-05-06 17:46 34.81842 -83.02108 26055 ft 441 kts 229°
2026-05-06 17:47 34.79621 -83.04673 26070 ft 441 kts 229°
2026-05-06 17:47 34.77391 -83.07245 26068 ft 441 kts 229°
2026-05-06 17:47 34.75205 -83.09764 26050 ft 441 kts 229°
2026-05-06 17:47 34.73015 -83.12286 26070 ft 441 kts 229°
2026-05-06 17:48 34.70753 -83.14889 26068 ft 441 kts 229°
2026-05-06 17:48 34.68518 -83.17461 26061 ft 441 kts 229°
2026-05-06 17:48 34.66312 -83.19996 26051 ft 440 kts 229°
2026-05-06 17:48 34.64082 -83.22556 26049 ft 433 kts 229°
2026-05-06 17:49 34.61907 -83.25052 25861 ft 429 kts 229°
2026-05-06 17:49 34.59783 -83.27491 25322 ft 419 kts 229°
2026-05-06 17:49 34.57718 -83.29851 25171 ft 398 kts 229°
2026-05-06 17:49 34.55753 -83.32095 25021 ft 379 kts 229°
2026-05-06 17:50 34.53885 -83.34236 24781 ft 364 kts 230°
2026-05-06 17:50 34.52079 -83.36311 24547 ft 351 kts 230°
2026-05-06 17:50 34.50299 -83.38360 23948 ft 351 kts 230°
2026-05-06 17:50 34.48531 -83.40400 23158 ft 352 kts 230°
2026-05-06 17:51 34.46754 -83.42453 22137 ft 358 kts 230°
2026-05-06 17:51 34.44966 -83.44510 21393 ft 356 kts 230°
2026-05-06 17:51 34.43177 -83.46560 20780 ft 350 kts 230°
2026-05-06 17:51 34.41405 -83.48588 20153 ft 344 kts 231°
2026-05-06 17:52 34.39699 -83.50540 19528 ft 339 kts 231°
2026-05-06 17:52 34.38005 -83.52481 19038 ft 337 kts 231°
2026-05-06 17:52 34.36309 -83.54425 18535 ft 335 kts 231°
2026-05-06 17:52 34.34624 -83.56355 18055 ft 333 kts 231°
2026-05-06 17:53 34.32943 -83.58279 17565 ft 331 kts 231°
2026-05-06 17:53 34.31271 -83.60189 17093 ft 328 kts 231°
2026-05-06 17:53 34.29641 -83.62048 16603 ft 326 kts 231°
2026-05-06 17:53 34.27987 -83.63907 16141 ft 324 kts 229°
2026-05-06 17:54 34.26302 -83.65712 15625 ft 324 kts 229°
2026-05-06 17:54 34.24602 -83.67506 15133 ft 322 kts 228°
2026-05-06 17:54 34.22922 -83.69276 14661 ft 321 kts 228°
2026-05-06 17:54 34.21253 -83.71040 14195 ft 319 kts 227°
2026-05-06 17:55 34.19580 -83.72812 13710 ft 317 kts 227°
2026-05-06 17:55 34.17944 -83.74548 13252 ft 315 kts 227°
2026-05-06 17:55 34.16327 -83.76264 12974 ft 306 kts 227°
2026-05-06 17:55 34.14745 -83.77945 12444 ft 302 kts 227°
2026-05-06 17:56 34.13220 -83.79558 12277 ft 288 kts 227°
2026-05-06 17:56 34.11746 -83.81120 12176 ft 277 kts 227°
2026-05-06 17:56 34.10315 -83.82636 12027 ft 268 kts 227°
2026-05-06 17:56 34.08962 -83.84075 11844 ft 261 kts 227°
2026-05-06 17:57 34.07613 -83.85526 11598 ft 260 kts 227°
2026-05-06 17:57 34.06265 -83.86977 11346 ft 260 kts 227°
2026-05-06 17:57 34.04867 -83.88382 11073 ft 261 kts 224°
2026-05-06 17:57 34.03454 -83.89752 10651 ft 263 kts 224°
2026-05-06 17:58 34.02039 -83.91125 10263 ft 264 kts 224°
2026-05-06 17:58 34.00605 -83.92530 9850 ft 266 kts 224°
2026-05-06 17:58 33.99188 -83.93934 9470 ft 267 kts 224°
2026-05-06 17:58 33.97808 -83.95318 9098 ft 267 kts 224°
2026-05-06 17:59 33.96354 -83.96798 8695 ft 269 kts 224°
2026-05-06 17:59 33.94923 -83.98272 8379 ft 267 kts 224°
2026-05-06 17:59 33.93540 -83.99706 8089 ft 264 kts 224°
2026-05-06 17:59 33.92182 -84.01120 7759 ft 262 kts 224°
2026-05-06 18:00 33.90793 -84.02572 7403 ft 263 kts 224°
2026-05-06 18:00 33.89432 -84.03999 7185 ft 258 kts 224°
2026-05-06 18:00 33.88066 -84.05433 6823 ft 259 kts 224°
2026-05-06 18:00 33.86764 -84.06801 6739 ft 247 kts 224°
2026-05-06 18:01 33.85487 -84.08134 6613 ft 233 kts 224°
2026-05-06 18:01 33.84310 -84.09355 6514 ft 218 kts 224°
2026-05-06 18:01 33.83179 -84.10518 6273 ft 209 kts 224°
2026-05-06 18:01 33.82059 -84.11669 5893 ft 210 kts 224°
2026-05-06 18:02 33.80976 -84.12783 5606 ft 207 kts 224°
2026-05-06 18:02 33.79892 -84.13903 5206 ft 208 kts 224°
2026-05-06 18:02 33.78800 -84.15040 4857 ft 208 kts 224°
2026-05-06 18:02 33.77726 -84.16184 4521 ft 206 kts 224°
2026-05-06 18:03 33.76677 -84.17317 4159 ft 205 kts 224°
2026-05-06 18:03 33.75634 -84.18466 3799 ft 204 kts 224°
2026-05-06 18:03 33.74609 -84.19629 3473 ft 202 kts 224°
2026-05-06 18:03 33.73625 -84.20764 3383 ft 188 kts 223°
2026-05-06 18:04 33.72681 -84.21766 3157 ft 181 kts 220°
2026-05-06 18:04 33.71754 -84.22706 3020 ft 168 kts 220°
2026-05-06 18:04 33.70913 -84.23556 2955 ft 152 kts 220°
2026-05-06 18:04 33.70077 -84.24373 2983 ft 154 kts 219°
2026-05-06 18:05 33.69261 -84.25163 2985 ft 152 kts 219°
2026-05-06 18:05 33.68446 -84.25944 2921 ft 149 kts 218°
2026-05-06 18:05 33.67649 -84.26710 3051 ft 149 kts 219°
2026-05-06 18:05 33.66861 -84.27485 3022 ft 145 kts 220°
2026-05-06 18:06 33.66118 -84.28278 2868 ft 143 kts 225°
2026-05-06 18:06 33.65474 -84.29180 2755 ft 140 kts 231°
2026-05-06 18:06 33.65018 -84.30221 2833 ft 146 kts 249°
2026-05-06 18:06 33.64890 -84.31471 2779 ft 156 kts 265°
2026-05-06 18:07 33.64923 -84.32741 2523 ft 155 kts 268°
2026-05-06 18:07 33.64973 -84.34037 2152 ft 155 kts 266°
2026-05-06 18:07 33.64989 -84.35326 1868 ft 159 kts 265°
2026-05-06 18:07 33.64972 -84.36626 1634 ft 152 kts 264°
2026-05-06 18:08 33.64962 -84.37872 1475 ft 154 kts 265°
2026-05-06 18:08 33.64970 -84.39160 1325 ft 155 kts 265°
2026-05-06 18:08 33.64955 -84.40441 1099 ft 151 kts 267°
2026-05-06 18:08 33.64940 -84.41624 1006 ft 123 kts 268°
2026-05-06 18:09 33.64945 -84.42339 1005 ft 61 kts 271°
2026-05-06 18:09 33.64949 -84.42647 1006 ft 26 kts 271°
2026-05-06 18:09 33.64952 -84.42859 1005 ft 24 kts 270°
2026-05-06 18:09 33.64951 -84.43030 1005 ft 19 kts 265°
2026-05-06 18:10 33.64932 -84.43154 1006 ft 8 kts 254°
2026-05-06 18:10 33.64913 -84.43216 1006 ft 8 kts 245°
2026-05-06 18:10 33.64887 -84.43275 1005 ft 8 kts 241°
2026-05-06 18:10 33.64863 -84.43331 1005 ft 7 kts 244°
2026-05-06 18:11 33.64847 -84.43390 1005 ft 7 kts 260°
2026-05-06 18:11 33.64845 -84.43429 1005 ft 7 kts 269°
2026-05-06 18:11 33.64839 -84.43505 1005 ft 7 kts 250°
2026-05-06 18:11 33.64804 -84.43542 1006 ft 7 kts 209°
2026-05-06 18:12 33.64760 -84.43572 1006 ft 9 kts 209°
2026-05-06 18:12 33.64684 -84.43622 1005 ft 15 kts 209°
2026-05-06 18:12 33.64594 -84.43684 1005 ft 15 kts 211°
2026-05-06 18:12 33.64519 -84.43721 1005 ft 9 kts 187°
2026-05-06 18:13 33.64468 -84.43705 1005 ft 8 kts 135°
2026-05-06 18:13 33.64458 -84.43642 1005 ft 8 kts 89°
2026-05-06 18:13 33.64458 -84.43582 1005 ft 7 kts 89°
2026-05-06 18:13 33.64459 -84.43522 1005 ft 7 kts 92°
2026-05-06 18:14 33.64438 -84.43473 1005 ft 7 kts 144°
2026-05-06 18:14 33.64393 -84.43458 1005 ft 7 kts 173°
2026-05-06 18:14 33.64364 -84.43457 1005 ft 2 kts 181°
2026-05-06 18:14 33.64349 -84.43464 1005 ft 2 kts 216°
2026-05-06 18:15 33.64341 -84.43481 1005 ft 2 kts 248°
2026-05-06 18:15 33.64339 -84.43499 1005 ft 2 kts 267°
2026-05-06 18:15 33.64339 -84.43516 1005 ft 2 kts 272°
2026-05-06 18:15 33.64339 -84.43526 1005 ft 1 kts 271°
2026-05-06 18:16 33.64339 -84.43527 1005 ft 0 kts 270°